Погода в Саме

Погода в Саме : погода сейчас, прогноз погоды и архив. Всё, что Вы хотите узнать о погоде в Саме!

Поиск расширенной информации на нашем сайте:

Другие новости

Новости СМИ2

Главная страница сайта

Новости сайта

02.10.2013

Напоминаем, что на нашем новом сайте вы можете получить высокодетализированные прогнозы погоды по пунктам России, СНГ и мира (включающие важные для авиации метеовеличины, такие как направление и скорость ветра, видимость, явления погоды, количество и форма облачности, нижняя и верхняя граница облачности), а также ознакомиться с разнообразными материалами по авиационной метеорологии и подборкой полезных ссылок на эту тему.

Сайт Метеоцентр.Азия посвящён разработке технологий оптимизации авиаметеорологического обслуживания, включая проектирование и перспективное создание нескольких автоматизированных авиаметеорологических систем:
- система выпуска высокодетальных прогностических карт явлений погоды для нижнего воздушного пространства по России и ближнему зарубежью;
- система верификации прогнозов TAF (выпускаемых синоптиками официальных АМСГ РФ и ближнего зарубежья) и AUTOTAF (выпускаемых сайтом Метеоцентр.Азия) - выявление ошибок, онлайн-сопоставление с фактической погодой METAR, автоматическое внесение коррективов в прогнозы при резком отклонении фактической погоды от прогноза, подсчёт оправдываемости прогнозов по элементам и в целом;
- система обработки, анализа и отображения авиаметеорологической информации для применения провайдерами метеорологической информации.

Рекомендуем: Наши партнеры: www.careprost-moscow.ru

Погода в Саме - сегодня

Время (UTC), дата Ветер
(°,м/с) 
Видим.   Явления Облачность Т
(°С)
Тd
(°С)
f(%) Тe
(°С)
Pmin
(гПа)
dP
(гПа)
Po
(мм)
O2
(г/м3)
Тmin Tmax R s Состояние
почвы
18 24.06.17 тихо ()   н/о    ясно 
+23.4 +2.9 26 +23  1009.7  0.4  750  277    +31.2       
21 24.06.17 тихо ()   н/о    ясно 
+20.4 +3.6 33 +20  1009.7  -0.2  750  280           
00 25.06.17 тихо ()   н/о    1/0 средняя 
[Ac lent]
+17.4 +4 41 +17  1009.6  -0.1  749  283           
03 25.06.17 200 (Ю) 20000 м    3/0 средняя, верхняя 
[Ac lent|Ci fib]
+22.3 +4.1 30 +22  1009.7  0.2  750  278           
06 25.06.17 200 (Ю) 20000 м    3/0 средняя, верхняя 
[Ac lent|Ci fib]
+29.9 +0 14 +30  1009.1  -0.3  750  272  +15.9         
09 25.06.17 230 (ЮЗ) 20000 м    3/1 1000 м верхняя 
[Cu med, cong|Ci fib]
+32.2 +2.9 16 +32  1008.3  -0.7  749  269           
12 25.06.17 320 (СЗ) 20000 м    8/6 1000 м верхняя 
[Cu med, cong|Ci sp]
+32.6 +8 22 +33  1007.6  -0.7  748  268           
15 25.06.17 320 (СЗ) 20000 м  в посл. час гроза{ливн. осадки}  9/8 600 м кучево-дожд., верхняя 
[Cb cap|Ci fib]
+26.3 +17.6 59 +40  1009  1.2  750  271    +33.3       
18 25.06.17 290 (З) н/о  {гроза}  9/8 600 м кучево-дожд., верхняя 
[Cb cap|Ci fib]
+24.9 +13.9 50 +32  1010.2  1.1  751  274    +33.3  0.3     
21 25.06.17 320 (СЗ) н/о  гроза без осадков{ливн. осадки}  9/8 600 м кучево-дожд., верхняя 
[Cb cap|Ci fib]
+19 +14.5 75 +27  1012  1.6  752  280           
00 26.06.17 290 (З) н/о  {ливн. осадки}  6/4 600 м кучево-дожд., верхняя 
[Cb cap|Ci fib]
+16.8 +13 78 +22  1013  0.9  752  283           
03 26.06.17 290 (З) 20000 м    3/0 средняя 
[Ac trans]
+18.3 +12 67 +23  1013.9  753  281         
06 26.06.17 020 (С) 20000 м    3/3 1000 м 
[Cu med, cong]
+24.9 +7.3 32 +25  1014.7  754  277  +15.7       
09 26.06.17 020 (С) 20000 м    3/3 1000 м 
[Cu med, cong]
+27.3 +5.1 24 +27  1014.8  0.2  754  275           
12 26.06.17 340 (С) 20000 м    3/3 1000 м 
[Cu med, cong]
+29.1 +3 19 +29  1014.6  -0.1  753  274           
15 26.06.17 340 (С) 20000 м    3/0 верхняя 
[Ci sp]
+28.2 +4 21 +28  1015.4  0.6  755  274    +29.4       
18 26.06.17 340 (С) н/о    3/0 верхняя 
[Ci sp]
+21.9 +5.8 35 +22  1016.9  1.3  755  280    +29.4       
21 26.06.17 340 (С) н/о    3/0 верхняя 
[Ci sp]
+18.9 +7.3 47 +20  1017.8  0.8  756  283           
00 27.06.17 360 (С) н/о    1/0 верхняя 
[Ci fib]
+16.7 +7.6 55 +18  1018.7  0.8  756  286           
03 27.06.17 050 (СВ) 20000 м    ясно 
+22.5 +9.5 44 +23  1019.6  1.1  757  279           
06 27.06.17 тихо ()   20000 м    ясно 
+28.9 +3.6 20 +29  1019.4  757  275  +15.7         
09 27.06.17 180 (Ю) 20000 м    ясно 
+31.4 +2.9 16 +31  1018.1  -1.1  757  272           
12 27.06.17 160 (Ю) 20000 м    ясно 
+32.2 +2.5 15 +32  1016.9  -1.2  755  272           
15 27.06.17 140 (ЮВ) 20000 м    ясно 
+31.2 +2.1 16 +31  1016.3  -0.6  755  272    +32.6       
18 27.06.17 140 (ЮВ) н/о    ясно 
+25.5 +3.4 24 +26  1016.6  0.1  755  277    +32.6       
Время (UTC), дата Ветер
(°,м/с) 
Видим.   Явления Облачность Т
(°С)
Тd
(°С)
f(%) Тe
(°С)
Pmin
(гПа)
dP
(гПа)
Po
(мм)
O2
(г/м3)
Тmin Tmax R s Состояние
почвы

Для получения пояснительной информации подведите курсор к названию столбца.

ПОГОДА в Саме - архив

Всё, что Вы хотите узнать о погоде в Саме - удобно и подробно!

Выберите нужную дату (начиная с 1 января 2015* года) и нажмите кнопку "Найти".
Будут отображены архивные сводки погоды по пункту Сам, начиная с указанной даты.


Отображать данные в формате CSV (для использования в таблицах Excel)


Внимание! Наш архив погоды предназначен исключительно для личного некоммерческого использования в познавательных целях. Если Вам необходимы официальные справки о состоянии погоды (для производственных, юридических, коммерческих и т.п. целей), обращайтесь в органы Росгидромета.

*Примечание: данная дата относится к архиву по метеостанциям СССР (Россия, СНГ, Балтия).
Архив по метеостанциям Зарубежной Европы и Азии (кроме Китая) хранится 10 дней, по другим регионам земного шара (Китай, Африка, Америка, Австралия, Океания) - 1 день.

Сам - район местоположения метеостанции


Название, широта, долгота, высота метеостанции:
Сам 45.4°ш. 56.1°д. 82 м над ур. моря [Казахстан]

Дополнительная информация

В oтличие oт бoльшинства пoгoдных сайтoв мы публикуем пoдрoбную метеoинфoрмацию в детальнoм прoфессиoнальнoм фoрмате.

Характеристики температуры и влажнoсти вoздуха измеряются на высoте 2 м в тени вдали oт зданий и деревьев.
Скoрoсть ветра измеряется на высoте 10 м (на урoвне рoста челoвека скoрoсть ветра ниже в 1.5-2 раза). Если метеoстанция нахoдится в гoрoде или в лесу, тo скoрoсть ветра занижена на 2-4 м/с пo сравнению с oткрытым местoм. Скoрoсть ветра над акватoриями крупных рек и oзёр, а также на вершинах хoлмoв на 2-5 м/с выше, чем в oбычных услoвиях.
Атмoсфернoе давление в разных тoчках местнoсти мoжет значительнo oтличаться oт давления на метеoстанции, в зависимoсти oт услoвий рельефа (при пoдъёме на 10 м давление пoнижается примернo на 1 мм рт.ст.).